#�ϑ�����,���ϕ���,���ϕ���,�ő啗��,�ő啗����������,�ő�u�ԕ���,�ő�u�ԕ�����������
#(�N����),(m/s)   ,(16����),(m/s)   ,(16����)        ,(m/s)       ,(16����)            
2012/9/10 1:12,1.5,3,1.5,3,1.6,4
2012/9/10 1:13,1.2,3,1.3,3,1.8,3
2012/9/10 1:14,1.4,4,1.4,3,2.4,4
2012/9/10 1:15,1.4,4,1.5,3,1.9,4
2012/9/10 1:16,1.5,3,1.5,3,2.5,3
2012/9/10 1:17,1.6,3,1.6,3,2.2,3
2012/9/10 1:18,1.6,3,1.6,3,2.7,3
2012/9/10 1:19,1.7,3,1.7,3,2.7,3
2012/9/10 1:20,1.7,3,1.7,3,2.6,3
2012/9/10 1:21,1.8,3,1.8,3,2.9,4
2012/9/10 1:22,1.8,3,1.8,3,2.9,3
2012/9/10 1:23,1.8,3,1.8,3,2.2,2
2012/9/10 1:24,1.8,3,1.8,3,2.4,4
2012/9/10 1:25,1.8,3,1.9,3,2.6,4
2012/9/10 1:26,1.9,3,1.9,3,3.2,3
2012/9/10 1:27,1.9,3,1.9,3,2.7,4
2012/9/10 1:28,2,3,2,3,3.9,4
2012/9/10 1:29,2,3,2,3,3.1,4
2012/9/10 3:15,1.3,3,1.3,3,1.4,2
2012/9/10 3:16,1,1,1.3,3,1.4,2
2012/9/10 3:17,1.3,2,1.3,3,2.5,3
2012/9/10 3:18,1.2,2,1.3,3,1.6,3
2012/9/10 3:19,1.3,2,1.3,3,1.8,2
2012/9/10 3:20,1.3,2,1.3,3,1.9,2
2012/9/10 3:21,1.3,2,1.3,3,1.6,3
2012/9/10 3:22,1.3,2,1.3,3,1.5,2
2012/9/10 3:23,1.2,2,1.3,3,1.1,2
2012/9/10 3:24,1.2,2,1.2,3,1.5,3
2012/9/10 3:25,1.2,2,1.2,3,1.8,2
2012/9/10 3:26,1.3,2,1.3,2,2.4,3
2012/9/10 3:27,1.3,2,1.3,2,1.8,3
2012/9/10 3:28,1.3,2,1.3,2,1.6,3
2012/9/10 3:29,1.2,2,1.3,2,1.9,2
2012/9/10 3:30,1.2,2,1.2,2,1.9,2
2012/9/10 3:31,1.1,2,1.2,2,1.9,3
2012/9/10 3:32,1.1,2,1.2,2,1.6,3
2012/9/10 3:33,1.2,2,1.2,2,1.6,1
2012/9/10 3:34,1.2,2,1.2,2,1.4,1
2012/9/10 3:35,1.1,2,1.2,2,1.6,2
2012/9/10 3:36,1,2,1.1,2,1.3,3
2012/9/10 3:37,1,2,1,2,1.8,2
2012/9/10 3:38,1,2,1,2,2,3
2012/9/10 3:39,1.1,2,1.1,2,2.2,2
2012/9/10 3:40,1.1,2,1.1,2,1.8,2
2012/9/10 3:41,1.1,2,1.1,2,1.5,2
2012/9/10 3:42,1.1,2,1.1,2,1.3,2
2012/9/10 3:43,1.1,2,1.1,2,2.1,2
2012/9/10 3:44,1.2,2,1.2,2,1.9,2
2012/9/10 7:42,1.1,6,1.1,6,1.8,7
2012/9/10 7:43,1.5,7,1.5,7,2.6,6
2012/9/10 7:44,1.5,7,1.6,7,2.4,6
2012/9/10 7:45,1.5,7,1.5,7,2.4,8
2012/9/10 7:46,1.5,7,1.6,7,2.4,7
2012/9/10 7:47,1.3,7,1.5,7,1.5,8
2012/9/10 7:48,1.3,7,1.3,7,1.8,5
2012/9/10 7:49,1.2,7,1.2,7,2.5,8
2012/9/10 7:50,1.2,7,1.2,7,2.5,6
2012/9/10 7:51,1.3,7,1.3,7,2.1,6
2012/9/10 7:52,1.4,7,1.4,7,3.3,6
2012/9/10 7:53,1.4,7,1.4,7,3.2,7
2012/9/10 7:54,1.5,7,1.5,7,3.7,5
2012/9/10 7:55,1.6,7,1.6,7,4.1,7
2012/9/10 7:56,1.6,7,1.6,7,3,4
2012/9/10 7:57,1.9,7,1.9,7,3.7,6
2012/9/10 7:58,2,7,2,7,3.5,6
2012/9/10 7:59,2.1,6,2.1,7,3.7,6
2012/9/10 8:00,2.3,6,2.3,6,3.9,6
2012/9/10 8:01,2.4,6,2.4,6,2.9,6
2012/9/10 8:02,2.3,6,2.4,6,2.5,8
2012/9/10 8:03,2.3,6,2.3,6,2.9,7
2012/9/10 8:04,2.2,6,2.3,6,2.5,7
2012/9/10 8:05,2.1,6,2.2,6,2,8
2012/9/10 8:06,2.1,6,2.1,6,2.7,6
2012/9/10 8:07,1.8,6,2.1,6,2,9
2012/9/10 8:08,1.8,6,1.8,6,2.1,10
2012/9/10 8:09,1.8,7,1.8,6,3.9,7
2012/9/10 8:10,1.7,7,1.8,6,4.4,8
2012/9/10 8:11,1.7,7,1.8,6,4.8,8
2012/9/10 8:12,1.9,7,1.9,6,4.7,8
2012/9/10 8:13,1.9,7,1.9,6,3.6,8
2012/9/10 8:14,2.1,7,2.1,6,3.8,7
2012/9/10 8:15,2.1,8,2.1,6,3,7
2012/9/10 8:16,2.2,8,2.2,8,3.9,8
2012/9/10 8:17,2.3,8,2.3,8,3.7,7
2012/9/10 8:18,2.4,8,2.4,8,3.1,6
2012/9/10 8:19,2.4,7,2.4,8,3.7,7
2012/9/10 8:20,2.4,7,2.4,8,4.1,8
2012/9/10 8:21,2.4,7,2.4,8,3.6,8
2012/9/10 8:22,2.3,7,2.4,8,2.7,8
2012/9/10 8:23,2.3,7,2.3,8,2,6
2012/9/10 8:24,2,7,2.2,8,1.6,7
2012/9/10 8:25,2,7,2,8,1.9,8
2012/9/10 8:26,1.8,7,2,8,1.6,6
2012/9/10 8:27,1.7,7,1.8,8,1.8,6
2012/9/10 8:28,1.6,7,1.7,7,2.2,5
2012/9/10 8:29,1.6,7,1.6,7,2.1,8
2012/9/10 8:30,1.4,7,1.5,7,2.5,8
2012/9/10 8:31,1.3,7,1.4,7,2.2,9
2012/9/10 8:32,1.2,7,1.3,7,1.5,7
2012/9/10 8:33,1.2,7,1.2,7,2,7
2012/9/10 8:34,1.2,7,1.2,7,1.8,7
2012/9/10 8:35,1.2,7,1.2,7,1.8,9
2012/9/10 8:36,1.2,7,1.2,7,2.1,7
2012/9/10 8:37,1.3,7,1.3,7,2.2,7
2012/9/10 8:38,1.3,7,1.3,7,2.2,7
2012/9/10 8:39,1.2,7,1.3,7,1,6
2012/9/10 8:40,1.1,7,1.2,7,1.5,9
2012/9/10 8:41,1.1,7,1.1,7,1.8,9
2012/9/10 8:42,1,7,1.1,7,1.1,9
2012/9/10 8:43,1,8,1,7,2,8
2012/9/10 8:44,1.1,7,1.1,7,2.2,7
2012/9/10 8:45,1.1,7,1.1,7,2.2,7
2012/9/10 8:46,1.2,7,1.2,7,1.9,8
2012/9/10 8:47,1.1,7,1.2,7,1.6,7
2012/9/10 8:48,1,8,1.1,7,1.6,9
2012/9/10 8:49,1.1,8,1.1,7,1.5,8
2012/9/10 8:50,1.1,8,1.1,7,1.4,8
2012/9/10 8:51,1,8,1.1,7,0.8,8
2012/9/10 8:52,1,8,1,7,0.8,8
2012/9/10 8:53,0.9,8,1,7,0.6,9
2012/9/10 8:54,0.8,8,0.9,7,0.5,8
2012/9/10 8:55,0.8,8,0.8,7,1.4,5
2012/9/10 8:56,0.7,7,0.8,7,1.1,4
2012/9/10 8:57,0.7,7,0.7,7,1.1,3
2012/9/10 8:58,0.7,6,0.7,8,1,5
2012/9/10 8:59,0.7,6,0.7,8,1,4
2012/9/10 9:00,0.6,5,0.7,8,0.8,5
2012/9/10 9:01,0.7,5,0.7,8,1.6,3
2012/9/10 9:02,0.7,4,0.7,8,1.4,4
2012/9/10 9:03,0.8,4,0.8,8,2.4,3
2012/9/10 9:04,1,4,1,4,2.5,3
2012/9/10 9:05,1.1,4,1.1,4,2,3
2012/9/10 9:06,1.1,3,1.1,4,2,2
2012/9/10 9:07,1.1,3,1.1,4,1.3,3
2012/9/10 9:08,1.1,3,1.1,4,1.4,3
2012/9/10 9:09,1.1,3,1.1,4,1.3,3
2012/9/10 9:10,1.1,3,1.1,4,1.8,2
2012/9/10 9:11,1.2,3,1.2,3,2,1
2012/9/10 9:12,1.2,3,1.2,3,1.8,2
2012/9/10 9:13,1.1,3,1.2,3,1.3,4
2012/9/10 9:14,1,3,1.1,3,1.3,2
2012/9/10 9:15,0.9,2,1,3,1.3,2
2012/9/10 9:16,0.9,3,0.9,3,1.3,3
2012/9/10 9:17,0.9,3,0.9,3,1,2
2012/9/10 9:18,0.8,3,0.9,3,0.8,3
2012/9/10 9:19,0.9,3,0.9,3,1.8,3
2012/9/10 9:20,1,3,1,3,1.9,3
2012/9/10 9:21,0.9,3,1,3,1.8,4
2012/9/10 9:22,1,3,1,3,2.6,3
2012/9/10 9:23,1,3,1,3,1.6,5
2012/9/10 9:24,1,3,1,2,0.8,8
2012/9/10 9:25,1,4,1,3,1.5,7
2012/9/10 9:26,1,4,1,3,1.6,6
2012/9/10 9:27,1.1,5,1.1,5,1.3,7
2012/9/10 9:28,1.1,5,1.1,5,1.8,8
2012/9/10 9:29,1,6,1.1,5,1,6
2012/9/10 9:30,0.9,6,1,5,1.1,8
2012/9/10 9:31,0.8,7,0.9,5,0.8,7
2012/9/10 9:32,0.7,7,0.8,5,1.3,8
2012/9/10 9:33,0.7,7,0.7,5,1.8,4
2012/9/10 9:34,0.8,7,0.8,5,3,6
2012/9/10 9:35,0.9,6,0.9,5,2.9,6
2012/9/10 9:36,1,6,1,5,2.7,6
2012/9/10 9:37,1.1,6,1.1,5,2.7,6
2012/9/10 9:38,1.2,6,1.2,6,2.1,6
2012/9/10 9:39,1.3,6,1.3,6,2.2,6
2012/9/10 9:40,1.4,6,1.4,6,2.2,6
2012/9/10 9:41,1.5,6,1.5,6,1.8,5
2012/9/10 9:42,1.5,6,1.5,6,1.9,6
2012/9/10 9:43,1.6,6,1.6,6,2,6
2012/9/10 9:44,1.5,6,1.6,6,1.1,6
2012/9/10 9:45,1.4,6,1.5,6,1.4,5
2012/9/10 9:46,1.2,6,1.3,6,1.1,6
2012/9/10 9:47,1.2,6,1.2,6,1.4,6
2012/9/10 9:48,1.1,6,1.2,6,1.1,7
2012/9/10 9:49,1,6,1.1,6,0.8,5
2012/9/10 9:50,0.9,6,1,6,1.4,8
2012/9/10 9:51,0.9,6,0.9,6,1.4,6
2012/9/10 9:52,0.8,6,0.9,6,1.3,7
2012/9/10 9:53,0.7,6,0.8,6,0.6,6
2012/9/10 9:54,0.6,5,0.7,6,0.1,3
2012/9/10 9:55,0.6,5,0.6,6,0.6,16
2012/9/10 9:56,0.5,5,0.6,6,0.8,6
2012/9/10 9:57,0.5,5,0.5,6,0.9,6
2012/9/10 9:58,0.4,5,0.5,6,0.3,6
2012/9/10 9:59,0.4,6,0.4,6,0.1,4
2012/9/10 10:00,0.4,5,0.4,6,1,4
2012/9/10 10:01,0.4,5,0.4,6,1.1,2
2012/9/10 10:02,0.3,4,0.4,6,0.6,1
2012/9/10 10:03,0.3,4,0.3,6,1,3
2012/9/10 10:04,0.3,4,0.3,5,0.8,3
2012/9/10 10:05,0.4,4,0.4,5,1.1,1
2012/9/10 16:32,0.5,6,0.5,6,1,9
2012/9/10 16:33,0.4,5,0.6,8,1,9
2012/9/10 16:34,1.3,6,1.3,6,3.1,8
2012/9/10 16:35,1.2,6,1.3,6,1.8,6
2012/9/10 16:36,1.1,6,1.2,6,1.3,6
2012/9/10 16:37,1.2,7,1.2,6,2.5,6
2012/9/10 16:38,1.3,6,1.3,6,2.6,7
2012/9/10 16:39,1.4,7,1.4,7,2.7,7
2012/9/10 16:40,1.4,7,1.4,7,2.7,7
2012/9/10 16:41,1.5,7,1.5,7,2.6,6
2012/9/10 16:42,1.5,7,1.5,7,2.5,6
2012/9/10 16:43,1.5,7,1.5,7,2.9,6
2012/9/10 16:44,1.4,7,1.5,7,1.5,5
2012/9/10 16:45,1.4,6,1.4,7,1.4,6
2012/9/10 16:46,1.5,6,1.5,7,2,6
2012/9/10 16:47,1.5,6,1.5,7,2.5,5
2012/9/10 16:48,1.4,6,1.5,7,2.6,6
2012/9/10 16:49,1.4,6,1.4,7,2.7,6
2012/9/10 16:50,1.4,6,1.5,7,3,5
2012/9/10 16:51,1.5,6,1.5,7,3.1,5
2012/9/10 16:52,1.6,6,1.6,6,2.7,5
2012/9/10 16:53,1.5,6,1.6,6,2,6
2012/9/10 16:54,1.7,6,1.7,6,3.6,5
2012/9/10 16:55,1.8,6,1.8,6,3,6
2012/9/10 16:56,1.9,6,1.9,6,2.7,6
2012/9/10 16:57,2,6,2,6,3.5,6
2012/9/10 16:58,2.1,5,2.1,6,3.7,5
2012/9/10 16:59,2.1,5,2.2,5,3.6,5
2012/9/10 17:00,2.1,5,2.1,5,2.5,6
2012/9/10 17:01,2.1,6,2.1,5,3.5,5
2012/9/10 17:02,2.2,5,2.2,5,2.9,5
2012/9/10 17:03,2.2,5,2.2,5,3.1,5
2012/9/10 17:04,2.2,5,2.2,5,3.1,5
2012/9/10 17:05,2.2,5,2.2,5,2.6,3
2012/9/10 17:06,2.1,5,2.1,5,3,5
2012/9/10 17:07,2.1,5,2.1,5,3.5,4
2012/9/10 17:08,2.1,5,2.1,5,3,5
2012/9/10 17:09,2.1,5,2.1,5,3.8,5
2012/9/10 17:10,2.2,5,2.2,5,3.9,5
2012/9/10 17:11,2.2,5,2.3,5,3.8,5
2012/9/10 17:12,2.2,5,2.2,5,3,6
2012/9/10 17:13,2.2,5,2.2,5,3.2,5
2012/9/10 17:14,2.2,5,2.2,5,3,4
2012/9/10 17:15,2.2,5,2.2,5,2.7,6
2012/9/10 17:16,2.2,5,2.2,5,2.7,5
2012/9/10 17:17,2.2,5,2.2,5,3.2,4
2012/9/10 17:18,2.2,5,2.2,5,2.9,5
2012/9/10 17:19,2.2,5,2.3,5,2.5,5
2012/9/10 17:20,2,5,2.2,5,2.5,6
2012/9/10 17:21,2,5,2,5,2.5,6
2012/9/10 17:22,1.9,5,2,5,2.4,5
2012/9/10 17:23,1.8,5,1.9,5,2.6,5
2012/9/10 17:24,1.8,5,1.8,5,2.5,5
2012/9/10 17:25,1.8,5,1.8,5,2.6,4
2012/9/10 17:26,1.8,5,1.8,5,3,5
2012/9/10 17:27,1.8,5,1.8,5,2.2,5
2012/9/10 17:28,1.6,5,1.8,5,1.8,6
2012/9/10 17:29,1.5,5,1.6,5,1.1,6
2012/9/10 17:30,1.4,5,1.5,5,0.8,7
2012/9/10 17:31,1.3,5,1.4,5,1.1,3
2012/9/10 17:32,1.2,5,1.3,5,0.6,7
2012/9/10 17:33,1.1,5,1.2,5,1.5,4
2012/9/10 17:34,0.9,5,1.1,5,0.6,2
2012/9/10 17:35,0.8,4,0.9,5,0.6,16
2012/9/10 17:36,0.6,4,0.8,5,1,1
2012/9/10 17:37,0.5,3,0.6,5,1,1
2012/9/10 17:38,0.4,3,0.5,5,0.6,1
2012/9/10 17:39,0.4,2,0.4,5,0.9,1
2012/9/10 17:40,0.5,2,0.5,5,1,2
2012/9/10 17:41,0.5,2,0.5,5,1.5,2
2012/9/10 17:42,0.5,2,0.5,5,1,3
2012/9/10 17:43,0.5,1,0.5,5,1.1,1
2012/9/10 17:44,0.6,1,0.6,4,1.8,2
2012/9/10 17:45,0.6,1,0.6,4,1,16
2012/9/10 17:46,0.6,1,0.6,4,1.3,2
2012/9/10 17:47,0.6,1,0.6,1,0.9,2
2012/9/10 17:48,0.6,1,0.6,1,0.8,1
2012/9/10 17:49,0.6,1,0.6,1,0.8,2
2012/9/10 17:50,0.6,1,0.6,1,1,1
2012/9/10 17:51,0.5,1,0.6,1,0.8,1
2012/9/10 17:52,0.6,1,0.6,1,1,1
2012/9/10 17:53,0.6,1,0.6,1,1.3,2
2012/9/10 17:54,0.6,1,0.6,1,1.4,1
2012/9/10 17:55,0.6,1,0.6,1,1.6,3
2012/9/10 17:56,0.6,2,0.6,1,1.4,2
2012/9/10 17:57,0.7,1,0.7,1,1.6,16
2012/9/10 17:58,0.8,1,0.8,1,1.5,2
2012/9/10 17:59,0.8,1,0.8,1,1.5,16
2012/9/10 18:00,0.9,1,0.9,1,1.6,2
2012/9/10 18:01,0.9,1,0.9,1,1.9,1
2012/9/10 18:02,1,1,1,1,1.5,15
2012/9/10 18:03,1,1,1,1,1.8,15
2012/9/10 18:04,1.1,1,1.1,1,3.5,16
2012/9/10 18:05,1.4,16,1.4,1,5.4,15
2012/9/10 18:06,1.7,16,1.7,16,5.4,16
2012/9/10 18:07,1.9,16,1.9,16,7.7,15
2012/9/10 18:08,2.7,16,2.7,16,13.4,15
2012/9/10 18:09,3.4,16,3.4,16,10.9,16
2012/9/10 18:10,3.8,16,3.8,16,8.3,16
2012/9/10 18:11,4.1,15,4.1,15,6.5,16
2012/9/10 18:12,4.4,15,4.4,15,5.7,16
2012/9/10 18:13,4.7,16,4.7,16,5.8,1
2012/9/10 18:14,4.7,16,4.8,16,5.8,16
2012/9/10 18:15,4.5,16,4.7,16,3,16
2012/9/10 18:16,4.3,16,4.5,16,2.1,15
2012/9/10 18:17,4.1,16,4.3,16,2.5,15
2012/9/10 18:18,3.4,16,4,16,3.9,16
2012/9/10 18:19,2.9,16,3.3,16,3.9,15
2012/9/10 18:20,2.5,16,2.8,16,2.6,14
2012/9/10 18:21,2.1,16,2.5,16,1,14
2012/9/10 18:22,1.7,16,2,16,1,1
2012/9/10 18:23,1.5,16,1.7,16,2.6,16
2012/9/10 18:24,1.4,16,1.5,16,3.7,1
2012/9/10 18:25,1.5,16,1.5,16,4.1,16
2012/9/10 18:26,1.7,16,1.7,16,3.3,1
2012/9/10 18:27,1.8,16,1.8,16,3.3,16
2012/9/10 18:28,1.8,16,1.9,16,3.9,16
2012/9/10 18:29,1.8,16,1.8,16,3.8,16
2012/9/10 18:30,1.9,16,1.9,16,3.6,16
2012/9/10 18:31,2.1,16,2.1,16,3.1,16
2012/9/10 18:32,2.4,16,2.4,16,4.8,16
2012/9/10 18:33,2.6,16,2.6,16,4.1,16
2012/9/10 18:34,2.7,16,2.7,16,4.7,16
2012/9/10 18:35,2.6,16,2.7,16,3.3,15
2012/9/10 18:36,2.7,16,2.7,16,3.8,16
2012/9/10 18:37,2.6,16,2.7,16,2.2,1
2012/9/10 18:38,2.5,16,2.6,16,2.1,1
2012/9/10 18:39,2.4,16,2.4,16,1.8,1
2012/9/10 18:40,2.2,16,2.4,16,1.5,2
2012/9/10 18:41,2.1,1,2.2,16,2,2
2012/9/10 18:42,1.9,1,2.1,16,1.6,1
2012/9/10 18:43,1.6,1,1.8,16,1.4,2
2012/9/10 18:44,1.4,1,1.6,16,2.1,16
2012/9/10 18:45,1.3,1,1.4,16,1.9,16
2012/9/10 18:46,1.1,1,1.3,16,2.1,16
2012/9/10 18:47,1.1,1,1.1,16,1.6,15
2012/9/10 18:48,1.1,1,1.1,16,1.9,1
2012/9/10 18:49,1.1,1,1.1,16,2.2,15
2012/9/10 18:50,1.2,1,1.2,16,1.9,16
2012/9/10 18:51,1.3,16,1.3,1,2.2,16
2012/9/10 18:52,1.3,16,1.3,1,2.6,16
2012/9/10 18:53,1.4,16,1.4,1,2.9,1
2012/9/10 18:54,1.4,16,1.4,1,2.1,2
2012/9/10 18:55,1.4,16,1.4,16,1.9,1
2012/9/10 18:56,1.4,16,1.4,16,2,16
2012/9/10 18:57,1.5,16,1.5,16,2.5,1
2012/9/10 18:58,1.6,16,1.6,16,3.2,16
2012/9/10 18:59,1.7,16,1.7,16,3.3,16
2012/9/10 19:00,1.7,16,1.7,16,3.3,16
2012/9/10 19:01,1.8,16,1.8,16,3.1,16
2012/9/10 19:02,1.9,16,1.9,16,3,16
2012/9/10 19:03,2,16,2,16,3.2,16
2012/9/10 19:04,2.2,16,2.2,16,3.9,1
2012/9/10 19:05,2.3,16,2.3,16,3.3,16
2012/9/10 19:06,2.4,16,2.4,16,2.7,15
2012/9/10 19:07,2.4,16,2.4,16,2.9,1
2012/9/10 19:08,2.4,16,2.4,16,3.1,16
2012/9/10 19:09,2.4,16,2.4,16,4.2,16
2012/9/10 19:10,2.4,16,2.5,16,3,16
2012/9/10 19:11,2.4,16,2.4,16,3.1,16
2012/9/10 19:12,2.4,16,2.4,16,3.3,15
2012/9/10 19:13,2.3,16,2.4,16,3.5,15
2012/9/10 19:14,2.3,16,2.3,16,3.5,15
2012/9/10 19:15,2.3,16,2.3,16,3.9,15
2012/9/10 19:16,2.4,16,2.4,16,4.4,15
2012/9/10 19:17,2.5,15,2.5,16,4.5,15
2012/9/10 19:18,2.6,15,2.6,15,4.2,15
2012/9/10 19:19,2.7,15,2.7,15,4.7,15
2012/9/10 19:20,2.8,15,2.8,15,4.7,15
2012/9/10 19:21,2.9,15,2.9,15,4.9,15
2012/9/10 19:22,3,15,3,15,4.2,15
2012/9/10 19:23,3,15,3,15,3.9,15
2012/9/10 19:24,3,15,3,15,3.3,15
2012/9/10 19:25,3,15,3,15,3.5,14
2012/9/10 19:26,2.8,15,3,15,3.3,16
2012/9/10 19:27,2.6,15,2.8,15,2.4,15
2012/9/10 19:28,2.4,15,2.6,15,0.9,2
2012/9/10 19:29,2.1,15,2.3,15,0.9,6
2012/9/10 19:30,1.8,15,2,15,1,9
2012/9/10 19:31,1.6,15,1.8,15,1.6,9
2012/9/10 19:32,1.3,14,1.6,15,1.3,8
2012/9/10 19:33,1.1,12,1.3,15,1.5,9
2012/9/10 19:34,1,10,1.1,15,0.8,9
2012/9/10 19:35,0.7,10,0.9,15,0.8,11
2012/9/10 19:36,0.5,10,0.7,15,0.1,12
2012/9/10 19:37,0.4,9,0.5,15,0.8,16
2012/9/10 19:38,0.5,10,0.5,15,1.1,16
2012/9/10 19:39,0.5,11,0.5,15,0.6,16
2012/9/10 19:40,0.5,13,0.5,15,0.6,1
2012/9/10 19:41,0.4,15,0.5,15,0.5,1
2012/9/10 19:42,0.3,16,0.4,14,0.8,2
2012/9/10 19:43,0.3,1,0.3,12,0.3,4
2012/9/10 19:44,0.3,1,0.3,10,0.8,16
2012/9/10 19:45,0.3,1,0.3,10,0.9,16
2012/9/10 19:46,0.4,1,0.4,10,1.5,2
2012/9/10 19:47,0.5,1,0.5,9,1.8,1
2012/9/10 19:48,0.6,1,0.6,1,1.9,1
2012/9/10 19:49,0.7,1,0.7,1,2,16
2012/9/10 19:50,0.9,1,0.9,1,2.7,16
2012/9/10 19:51,1,1,1,1,2.4,15
2012/9/10 19:52,1.1,1,1.1,1,2,15
2012/9/10 19:53,1.3,16,1.3,16,2.4,16
2012/9/10 19:54,1.4,16,1.4,16,2.5,16
2012/9/10 19:55,1.5,16,1.5,16,2.2,16
2012/9/10 19:56,1.5,16,1.5,16,1.5,16
2012/9/10 19:57,1.5,16,1.5,16,1.3,1
2012/9/10 19:58,1.4,16,1.5,16,1,2
2012/9/10 19:59,1.3,1,1.4,16,0.6,1
2012/9/10 20:00,1.2,1,1.3,16,0.5,2
2012/9/10 20:01,1,1,1.2,16,0.8,4
2012/9/10 20:02,0.9,2,1,16,0.8,5
2012/9/10 20:03,0.8,2,0.9,16,0.4,6
2012/9/10 20:04,0.6,3,0.8,16,0.4,6
2012/9/10 20:05,0.5,3,0.6,16,0.5,5
2012/9/10 20:06,0.4,4,0.5,16,0.4,6
2012/9/10 20:07,0.3,4,0.4,16,0.4,4
2012/9/10 20:08,0.2,4,0.3,16,0.1,3
2012/9/10 20:09,0.2,4,0.2,1,0,3
2012/9/10 20:10,0.2,4,0.2,1,0,1
2012/9/10 20:11,0.1,4,0.2,1,0,2
2012/9/10 20:12,0.1,4,0.1,2,0.9,5
2012/9/10 20:13,0.2,4,0.2,2,1,4
2012/9/10 20:14,0.3,4,0.3,3,1,5
2012/9/10 20:15,0.3,4,0.3,3,1.4,4
2012/9/10 20:16,0.4,4,0.4,4,1.4,4
2012/9/10 20:17,0.5,4,0.5,4,1,4
2012/9/10 20:18,0.6,4,0.6,4,1.4,4
2012/9/10 20:19,0.7,4,0.7,4,1.3,4
2012/9/10 20:20,0.8,4,0.8,4,1.3,3
2012/9/10 20:21,0.9,4,0.9,4,1.5,3
2012/9/10 20:22,0.9,4,0.9,4,1.5,3
2012/9/10 20:23,0.9,3,0.9,4,1.6,3
2012/9/10 20:24,0.9,3,0.9,4,0.6,16
2012/9/10 20:25,0.8,3,0.8,4,0.8,1
2012/9/10 20:26,0.7,3,0.8,4,0.6,2
2012/9/10 20:27,0.7,2,0.7,4,0.5,1
2012/9/10 20:28,0.7,2,0.7,4,0.8,2
2012/9/10 20:29,0.6,2,0.7,4,1,1
2012/9/10 20:30,0.6,2,0.6,4,0.8,1
2012/9/10 20:31,0.5,2,0.5,4,0.9,16
2012/9/10 20:32,0.4,2,0.5,4,0.9,16
2012/9/10 20:33,0.4,2,0.4,3,0.9,15
2012/9/10 20:34,0.4,1,0.4,3,0.6,15
2012/9/10 20:35,0.4,1,0.4,3,0.9,16
2012/9/10 20:36,0.4,1,0.4,3,0.6,15
2012/9/10 20:37,0.4,16,0.4,2,0.1,12
2012/9/10 20:38,0.3,16,0.4,2,0.6,14
2012/9/10 20:39,0.3,15,0.3,2,0.5,14
2012/9/10 20:40,0.3,15,0.3,2,0,7
2012/9/10 20:41,0.2,15,0.3,2,0.1,5
2012/9/10 20:42,0.2,14,0.2,2,0.4,12
2012/9/10 20:43,0.2,14,0.2,2,0.9,8
2012/9/10 20:44,0.2,12,0.2,1,1.1,9
2012/9/10 20:45,0.3,10,0.3,1,1.4,8
2012/9/10 20:46,0.3,9,0.3,1,1.6,8
2012/9/10 20:47,0.4,9,0.4,16,1.3,9
2012/9/10 20:48,0.4,9,0.4,9,0.9,8
2012/9/10 20:49,0.4,8,0.4,9,1.6,10
2012/9/10 20:50,0.5,9,0.5,8,1.1,13
2012/9/10 20:51,0.7,9,0.7,9,2.7,10
2012/9/10 20:52,0.8,9,0.8,9,2.5,11
2012/9/10 20:53,1,10,1,10,1.9,10
2012/9/10 20:54,1,10,1,10,1.5,13
2012/9/10 20:55,1,11,1,10,1.4,13
2012/9/10 20:56,1,11,1,10,1.4,15
2012/9/10 20:57,1,12,1,10,1.4,15
2012/9/10 20:58,1.1,13,1.1,12,1.3,1
2012/9/10 20:59,1,14,1.1,12,0.8,1
2012/9/10 21:00,1,14,1.1,12,0.8,2
2012/9/10 21:01,0.9,15,1,12,0.9,2
2012/9/10 21:02,0.8,16,0.9,12,1,3
2012/9/10 21:03,0.8,1,0.8,12,0.9,5
2012/9/10 21:04,0.7,2,0.8,12,1,5
2012/9/10 21:05,0.7,2,0.7,12,1,7
2012/9/10 21:06,0.6,3,0.7,12,0.8,9
2012/9/10 21:07,0.6,4,0.6,12,1.1,8
2012/9/10 21:08,0.6,5,0.6,13,1,9
2012/9/10 21:09,0.6,6,0.6,14,0.6,15
2012/9/10 21:10,0.5,6,0.6,15,0.4,16
2012/9/10 21:11,0.5,7,0.5,15,0.3,5
2012/9/10 21:12,0.4,8,0.5,16,0.1,11
2012/9/10 21:13,0.4,8,0.4,1,0.1,10
2012/9/10 21:14,0.3,9,0.3,2,0.4,9
2012/9/10 21:15,0.2,10,0.3,3,0.1,12
2012/9/10 21:16,0.2,11,0.2,3,0.5,14
2012/9/10 21:17,0.2,12,0.2,4,0.9,15
2012/9/10 21:18,0.2,13,0.2,5,1.1,1
2012/9/10 21:19,0.2,13,0.2,6,1.4,16
2012/9/10 21:20,0.3,14,0.3,6,1.5,16
2012/9/10 21:21,0.5,14,0.5,7,1.6,16
2012/9/10 21:22,0.6,15,0.6,15,1.6,16
2012/9/10 21:23,0.7,15,0.7,15,1.4,16
2012/9/10 21:24,0.8,15,0.8,15,1.4,16
2012/9/10 21:25,0.8,16,0.8,15,0.9,1
2012/9/10 21:26,0.9,16,0.9,16,0.9,16
2012/9/10 21:27,0.9,16,0.9,16,0.6,16
2012/9/10 21:28,0.8,16,0.9,16,0.6,15
2012/9/10 21:29,0.8,16,0.8,16,0.8,16
2012/9/10 21:30,0.8,16,0.8,16,1.5,16
2012/9/10 21:31,0.8,16,0.8,16,1.8,16
2012/9/10 21:32,0.8,16,0.8,16,1.5,16
2012/9/10 21:33,0.8,16,0.8,16,1.3,16
2012/9/10 21:34,0.8,16,0.8,16,1.4,16
2012/9/10 21:35,0.8,16,0.8,16,1.1,16
2012/9/10 21:36,0.8,16,0.8,16,1.4,16
2012/9/10 21:37,0.9,16,0.9,16,1.1,16
2012/9/10 21:38,1,16,1,16,1.3,16
2012/9/10 21:39,1,16,1,16,1.3,16
2012/9/10 21:40,1,16,1,16,1.1,16
2012/9/10 21:41,0.9,16,1,16,1.3,16
2012/9/10 21:42,0.9,16,0.9,16,1,16
2012/9/10 21:43,0.9,16,0.9,16,0.8,1
2012/9/10 21:44,0.8,16,0.9,16,0.5,1
2012/9/10 21:45,0.7,16,0.8,16,0.1,15
2012/9/10 21:46,0.6,16,0.7,16,0.1,8
2012/9/10 21:47,0.5,16,0.6,16,0.5,14
2012/9/10 21:48,0.5,16,0.5,16,0.4,14
2012/9/10 21:49,0.4,15,0.4,16,0.3,15
2012/9/10 21:50,0.3,15,0.4,16,0.8,10
2012/9/10 21:51,0.2,14,0.3,16,0.5,8
2012/9/10 21:52,0.2,12,0.2,16,0.8,9
2012/9/10 21:53,0.2,10,0.2,16,0.9,8
2012/9/10 21:54,0.3,9,0.3,16,0.9,8
2012/9/10 21:55,0.3,9,0.3,16,0.9,7
2012/9/10 21:56,0.4,9,0.4,16,0.8,8
2012/9/10 21:57,0.4,8,0.4,16,0.9,8
2012/9/10 21:58,0.4,8,0.4,16,1.1,8
2012/9/10 21:59,0.5,8,0.5,8,0.8,8
2012/9/10 22:00,0.5,8,0.5,8,0.6,8
2012/9/10 22:01,0.5,8,0.5,8,0.3,9
2012/9/10 22:02,0.5,8,0.5,8,0,13
2012/9/10 22:03,0.4,8,0.5,8,0.3,2
2012/9/10 22:04,0.3,8,0.4,8,0.1,1
2012/9/10 22:05,0.3,8,0.3,8,0.6,15
2012/9/10 22:06,0.3,8,0.3,8,0.6,16
2012/9/10 22:07,0.3,16,0.3,8,0.5,1
2012/9/10 22:08,0.3,16,0.3,8,0.8,1
2012/9/10 22:09,0.2,1,0.3,8,0.8,1
2012/9/10 22:10,0.2,16,0.2,8,0.6,15
2012/9/10 22:11,0.2,16,0.2,8,0.5,15
2012/9/10 22:12,0.3,1,0.3,8,1.4,15
2012/9/10 22:13,0.4,16,0.4,8,1.1,14
2012/9/10 22:14,0.4,16,0.4,1,0.6,1
2012/9/10 22:15,0.4,16,0.4,1,0.1,13
2012/9/10 22:16,0.3,15,0.4,1,0.1,11
2012/9/10 22:17,0.3,15,0.3,1,0.1,7
2012/9/10 22:18,0.2,14,0.3,1,0,8
2012/9/10 22:19,0.2,13,0.2,1,0,10
2012/9/10 22:20,0.2,12,0.2,1,0,9
2012/9/10 22:21,0.2,11,0.2,1,0.1,2
2012/9/10 22:22,0.1,11,0.2,1,0.5,16
2012/9/10 22:23,0.1,11,0.1,16,0.6,16
2012/9/10 22:24,0.1,11,0.1,16,0.8,16
2012/9/10 22:25,0.2,11,0.2,16,1.3,2
2012/9/10 22:26,0.3,16,0.3,15,1.4,1
2012/9/10 22:27,0.4,16,0.4,16,1.3,16
2012/9/10 22:28,0.5,16,0.5,16,1,1
2012/9/10 22:29,0.5,16,0.5,16,1.1,16
2012/9/10 22:30,0.6,16,0.6,16,0.9,16
2012/9/10 22:31,0.6,16,0.6,16,0.5,16
2012/9/10 22:32,0.6,16,0.6,16,0.3,1
2012/9/10 22:33,0.5,16,0.6,16,0,13
2012/9/10 22:34,0.5,16,0.5,16,0.1,15
2012/9/10 22:35,0.4,16,0.5,16,0,14
2012/9/10 22:36,0.3,16,0.4,16,0,13
2012/9/10 22:37,0.2,16,0.3,16,0.1,16
2012/9/10 22:38,0.2,16,0.2,16,0.5,1
2012/9/10 22:39,0.2,16,0.2,16,1.1,1
2012/9/10 22:40,0.2,16,0.2,16,1.4,16
2012/9/10 22:41,0.3,16,0.3,16,1.3,1
2012/9/10 22:42,0.4,16,0.4,16,1.4,1
2012/9/10 22:43,0.5,16,0.5,16,1.4,15
2012/9/10 22:44,0.5,16,0.5,16,0.5,1
2012/9/10 22:45,0.6,1,0.6,1,0.6,2
2012/9/10 22:46,0.6,1,0.6,1,0.6,16
2012/9/10 22:47,0.6,1,0.6,1,0.1,16
2012/9/10 22:48,0.6,1,0.6,1,0.1,1
2012/9/10 22:49,0.5,1,0.6,1,0.8,16
2012/9/10 22:50,0.4,1,0.5,1,0.8,2
2012/9/10 22:51,0.4,1,0.4,1,1,16
2012/9/10 22:52,0.4,1,0.4,1,2,15
2012/9/10 22:53,0.5,1,0.5,1,2.1,15
2012/9/10 22:54,0.6,1,0.6,1,2.1,16
2012/9/10 22:55,0.8,16,0.8,16,2.4,16
2012/9/10 22:56,0.9,16,0.9,16,2.4,16
2012/9/10 22:57,1,16,1,16,2.4,16
2012/9/10 22:58,1.2,16,1.2,16,2,14
2012/9/10 22:59,1.3,15,1.3,15,1.9,13
2012/9/10 23:00,1.4,15,1.4,15,1.6,12
2012/9/10 23:01,1.4,15,1.4,15,1.6,12
2012/9/10 23:02,1.5,14,1.5,14,1.9,11
2012/9/10 23:03,1.5,13,1.5,14,2.1,10
2012/9/10 23:04,1.5,13,1.5,14,1.8,11
2012/9/10 23:05,1.4,12,1.5,14,1.4,11
2012/9/10 23:06,1.3,12,1.4,14,1.1,12
2012/9/10 23:07,1.3,12,1.3,14,1,13
2012/9/10 23:08,1.1,12,1.3,14,0.9,15
2012/9/10 23:09,1,12,1.1,14,0.1,16
2012/9/10 23:10,0.9,12,1,14,0,16
2012/9/10 23:11,0.8,13,0.9,14,0.6,2
2012/9/10 23:12,0.7,14,0.8,14,0.9,2
2012/9/10 23:13,0.5,15,0.7,13,0.6,3
2012/9/10 23:14,0.4,16,0.5,13,0.4,1
2012/9/10 23:15,0.3,1,0.4,12,0.1,3
2012/9/10 23:16,0.2,1,0.3,12,0.4,6
2012/9/10 23:17,0.2,2,0.2,12,1,7
2012/9/10 23:18,0.3,3,0.3,12,1,6
2012/9/10 23:19,0.3,3,0.3,12,0.8,6
2012/9/10 23:20,0.3,4,0.3,13,0.5,6
2012/9/10 23:21,0.3,4,0.3,13,0,6
2012/9/10 23:22,0.3,5,0.3,14,0,5
2012/9/10 23:23,0.2,5,0.3,15,0,6
2012/9/10 23:24,0.2,5,0.2,16,0.1,5
2012/9/10 23:25,0.2,5,0.2,1,0.8,5
2012/9/10 23:26,0.3,5,0.3,2,0.9,4
2012/9/10 23:27,0.2,5,0.3,2,0.4,3
2012/9/10 23:28,0.2,5,0.2,3,0.6,7
2012/9/10 23:29,0.2,5,0.2,3,0.9,8
2012/9/10 23:30,0.2,5,0.2,4,0.8,7
2012/9/10 23:31,0.2,5,0.2,4,0.5,9
2012/9/10 23:32,0.2,6,0.2,5,0.9,8
2012/9/10 23:33,0.3,6,0.3,5,0.9,8
2012/9/10 23:34,0.3,7,0.3,5,0.6,9
2012/9/10 23:35,0.3,7,0.3,5,0.9,8
2012/9/10 23:36,0.3,7,0.3,5,0.5,8
2012/9/10 23:37,0.4,8,0.4,8,1.3,8
2012/9/10 23:38,0.4,8,0.4,8,1.1,8
2012/9/10 23:39,0.4,8,0.4,8,1.1,9
2012/9/10 23:40,0.5,8,0.5,8,1.4,9
2012/9/10 23:41,0.6,8,0.6,8,1.9,9
2012/9/10 23:42,0.6,9,0.6,8,1.5,9
2012/9/10 23:43,0.6,9,0.6,8,1.9,10
2012/9/10 23:44,0.7,9,0.7,9,1.8,8
2012/9/10 23:45,0.8,9,0.8,9,2.4,8
2012/9/10 23:46,0.9,9,0.9,9,2.4,8
2012/9/10 23:47,0.9,9,0.9,9,1.6,10
2012/9/10 23:48,0.9,9,0.9,9,2.9,9
2012/9/10 23:49,1,9,1,9,2.4,9
2012/9/10 23:50,1,9,1,9,1.8,9
2012/9/10 23:51,1,9,1,9,1.8,6
